GFSWCAN_prec_cthk_123.txt.gz
RH
85 80 80 82 87 90 98 97 90 73 81 64 63 56 54 47 56 66 62 46 39 46 50 47 42 37 27 25 24 27 27 30 30 35 41 48 56 64 70 72 75 74 82 90 96 94 94 94 91 82 83 82 79 78
86 82 85 87 89 93 98 98 94 86 88 69 51 48 52 65 66 64 52 46 46 46 49 47 43 29 24 24 26 30 31 33 32 35 40 47 55 62 66 79 75 75 75 82 90 94 96 96 93 86 84 83 81 77
84 87 89 88 88 94 98 98 98 95 83 62 48 52 66 69 66 57 52 50 50 49 52 48 40 31 31 30 30 30 34 33 33 35 42 48 53 57 64 70 73 78 76 75 84 90 92 94 93 89 87 84 82 75
88 89 91 91 94 98 98 98 97 97 85 69 52 59 69 73 62 52 48 47 47 46 53 55 46 40 35 31 29 29 30 29 32 35 40 45 50 53 59 61 66 74 74 73 75 84 84 84 82 80 79 77 72 68
89 91 92 95 97 98 98 98 98 98 88 75 57 64 74 73 57 55 49 52 50 45 53 58 50 43 39 37 34 33 30 29 29 32 37 43 49 51 54 55 62 64 69 72 71 66 70 71 67 66 66 65 64 62
98 92 92 97 98 98 98 98 98 98 93 76 66 72 77 63 56 56 55 59 53 49 53 60 57 49 44 41 40 37 36 32 31 33 37 40 46 45 48 51 55 59 63 68 73 72 64 63 65 64 64 63 61 58
93 89 96 98 98 98 98 98 98 98 93 88 79 76 78 62 62 63 61 53 59 51 51 62 60 53 47 42 40 40 39 39 37 38 38 39 42 44 47 49 50 55 57 67 72 72 77 73 68 66 63 60 57 52
90 93 97 97 98 98 98 98 98 98 96 93 87 84 71 66 64 65 52 57 55 49 53 60 60 57 48 45 46 42 40 39 39 42 43 43 42 44 44 45 49 53 57 63 73 77 75 76 71 67 66 64 57 51
95 96 98 98 98 98 98 98 98 97 95 93 88 79 75 71 69 58 57 57 53 51 55 57 54 59 49 51 48 47 44 44 45 45 46 48 50 49 41 44 46 50 56 65 69 70 72 69 70 69 66 60 54 39
95 95 97 98 98 99 98 97 97 95 81 77 86 80 76 72 65 61 67 57 55 57 56 53 54 56 53 51 50 47 46 51 52 53 54 56 51 46 48 49 50 52 54 61 71 72 69 67 69 69 64 51 36 31
95 92 94 96 97 98 98 97 97 95 84 80 66 65 85 74 71 71 64 60 60 62 56 53 53 54 53 52 51 52 55 56 54 56 57 58 51 45 49 52 56 58 59 62 68 74 72 67 69 68 51 40 34 32
91 89 89 96 98 98 98 98 97 93 80 74 73 85 79 74 74 67 66 66 61 60 55 54 52 51 54 51 54 57 57 57 56 60 58 52 44 46 51 58 60 62 67 66 64 73 78 73 70 59 42 38 34 30
93 86 86 92 94 97 98 98 96 87 72 72 80 84 75 83 77 70 68 64 62 57 51 52 56 55 56 55 57 58 59 61 59 58 53 45 47 52 59 64 71 69 68 67 64 70 77 72 70 51 38 35 29 25
92 86 86 88 89 94 98 98 96 94 85 81 79 82 84 80 74 67 61 59 57 50 49 54 56 55 57 59 62 60 58 59 58 56 53 55 60 62 64 70 75 74 70 68 62 64 68 69 69 45 33 31 25 26
92 84 78 85 94 96 97 93 96 93 84 85 78 83 81 70 69 69 69 64 54 51 55 55 53 53 58 59 58 58 60 58 53 51 52 57 63 64 66 69 73 76 69 66 65 65 66 70 55 36 30 26 26 29
90 84 84 86 88 94 94 87 94 93 90 85 84 81 81 76 79 74 69 65 57 57 57 55 58 58 59 57 56 55 53 50 46 50 50 54 60 63 63 64 67 76 77 74 69 68 69 53 39 32 28 26 28 30
87 85 85 82 84 90 90 87 89 87 83 80 82 80 82 78 81 73 71 69 63 61 64 59 57 57 58 57 56 51 48 44 42 46 47 46 52 60 67 57 59 75 71 70 63 53 45 38 32 29 28 29 30 30
82 86 87 87 88 94 90 88 88 85 84 84 82 82 82 75 79 75 74 74 70 66 65 63 57 59 57 57 55 50 48 49 49 49 50 50 50 63 68 62 54 63 62 56 50 42 36 32 29 29 30 30 31 30
86 87 86 90 96 95 92 89 87 86 84 77 79 84 84 80 79 83 79 78 77 75 73 67 66 62 59 56 54 53 51 50 49 48 49 51 53 61 71 71 66 56 52 51 45 37 34 32 32 32 32 31 32 34
86 84 81 86 87 86 85 88 85 86 89 90 84 81 85 82 81 85 87 86 82 81 78 74 70 66 64 62 60 59 57 55 53 53 52 51 52 57 67 73 75 75 60 47 45 40 35 33 33 33 34 34 35 38
83 80 78 81 79 78 78 80 82 83 84 85 84 81 80 80 79 76 79 83 85 84 83 75 71 63 63 66 65 62 62 59 57 58 58 56 55 57 62 70 74 76 77 75 60 46 39 35 35 35 34 35 37 38
80 78 79 79 79 77 78 75 74 75 79 85 83 82 82 79 72 64 63 61 58 57 59 61 60 57 59 63 69 67 64 60 57 57 56 56 58 60 65 69 71 74 79 80 80 75 65 57 51 47 44 41 39 41
81 83 83 79 76 74 78 73 70 70 66 68 71 69 67 63 67 61 56 52 50 50 48 49 49 48 49 59 70 69 65 59 57 53 51 55 58 60 67 73 73 73 73 75 75 74 71 66 56 48 45 47 51 53
83 84 82 78 71 72 67 70 68 68 62 60 58 61 59 61 64 67 63 57 54 52 48 48 49 52 54 60 70 72 69 65 59 56 54 55 55 58 64 72 74 74 75 72 72 69 64 60 56 56 60 62 59 54
87 86 80 73 65 63 64 70 72 67 61 55 56 57 56 59 63 65 62 60 60 62 60 56 56 59 62 61 67 72 72 69 67 65 62 58 53 56 62 66 69 68 69 69 69 67 65 65 69 71 68 65 64 65
77 70 64 59 55 54 60 68 69 68 67 65 62 58 55 58 61 61 59 57 58 61 59 61 62 67 71 71 69 69 69 69 69 67 63 58 56 58 62 65 66 68 69 70 71 73 75 76 73 71 70 68 64 63
64 62 56 55 58 58 62 65 69 71 72 71 70 68 67 67 63 61 67 65 67 69 73 79 86 86 83 80 77 73 72 71 68 66 62 59 57 60 66 69 70 72 75 78 81 83 81 77 73 66 65 68 71 73
56 65 70 75 77 80 83 85 84 82 79 80 86 90 90 88 90 96 95 91 90 88 86 87 86 85 83 81 79 77 74 71 68 66 66 65 67 71 75 77 80 82 84 88 83 74 68 61 61 68 70 69 63 58
81 85 89 92 95 97 98 98 96 95 94 95 95 95 95 95 96 96 96 94 91 89 87 86 84 83 82 79 78 75 72 72 71 70 72 75 77 79 82 84 88 92 88 77 72 64 60 65 64 60 57 57 57 49
85 88 92 96 97 96 94 93 93 91 91 90 89 87 88 89 89 89 88 88 89 88 87 87 88 88 86 83 76 73 75 74 74 75 78 81 82 85 89 94 90 83 76 66 63 66 64 61 58 58 55 48 42 37
97 97 96 94 93 91 88 86 86 85 85 84 82 82 85 87 88 87 89 91 92 93 95 97 95 92 90 87 80 76 77 79 80 82 86 89 93 94 90 86 79 67 64 66 63 61 58 57 53 48 43 38 34 35
98 98 98 98 98 98 98 97 95 92 89 88 87 87 89 91 92 93 95 97 98 98 98 98 98 98 98 95 88 83 83 87 89 87 86 84 83 79 72 65 66 67 63 61 58 56 52 48 44 38 35 37 36 33
98 98 97 97 97 97 98 98 97 97 97 97 97 97 98 98 98 98 98 98 98 98 98 98 97 96 94 90 87 87 88 88 87 82 78 75 71 71 70 65 62 59 57 55 52 48 44 39 38 39 37 34 31 25

GFSWCAN_prec_cthk_129.txt.gz
RH
91 99 89 85 80 78 76 78 86 94 97 98 98 98 95 92 85 83 77 75 79 75 74 76 65 60 62 58 61 54 38 31 24 30 31 43 47 46 48 45 45 51 57 60 60 69 86 77 84 89 93 87 85 86
94 95 90 86 82 81 78 80 88 91 96 96 94 92 96 93 74 70 70 72 69 60 62 58 58 52 56 51 39 34 35 24 25 29 35 46 44 47 44 55 40 51 46 66 63 77 83 85 90 91 89 86 84 82
97 97 91 86 84 82 82 84 81 90 95 93 88 87 92 81 68 70 65 55 56 55 55 57 61 48 38 38 28 32 32 32 26 38 40 44 44 39 47 48 52 46 46 55 62 70 79 87 93 94 92 88 85 79
98 99 88 86 85 85 84 88 87 93 86 77 76 90 83 68 65 72 71 63 59 51 59 65 55 46 44 33 25 26 27 23 24 28 32 36 41 38 49 54 46 50 50 55 65 67 76 88 96 97 94 91 87 83
96 94 87 90 88 88 89 95 89 84 73 74 82 73 66 63 68 74 68 52 53 55 57 60 54 51 47 42 32 29 28 27 30 30 33 39 41 39 40 43 48 44 52 53 61 58 73 79 88 93 94 92 89 86
99 91 87 89 89 88 95 95 91 87 83 69 65 63 66 70 76 74 57 51 52 54 57 66 59 60 51 40 33 29 28 32 31 35 37 40 39 41 44 45 50 42 44 49 52 57 68 76 82 80 81 82 81 81
99 92 89 90 90 88 96 97 96 92 87 65 63 67 69 74 67 68 54 56 56 60 58 64 68 63 53 41 37 32 29 29 33 30 35 35 37 36 43 44 42 41 42 44 47 54 61 67 72 80 79 74 74 67
98 93 90 89 89 88 95 98 98 95 85 71 63 69 73 66 62 61 58 55 53 58 56 61 67 62 57 49 42 36 37 34 33 35 31 35 36 34 38 42 38 39 41 45 50 54 60 68 73 76 79 75 68 62
94 96 94 91 89 90 97 98 98 93 86 70 70 75 71 71 73 66 60 54 49 57 61 60 61 69 57 51 45 38 38 39 32 42 40 36 43 40 39 38 35 39 41 43 48 53 58 66 74 78 78 72 64 57
93 94 93 89 89 92 97 98 98 92 89 73 79 78 72 64 64 68 70 70 69 61 60 64 64 62 55 50 48 41 39 39 45 43 39 39 42 41 35 38 41 41 42 46 49 53 58 61 67 73 74 76 71 63
94 95 96 93 91 93 97 98 97 93 83 77 79 77 73 68 70 75 73 70 68 66 65 62 64 62 57 53 46 45 44 43 47 49 48 45 46 40 36 41 45 43 46 47 53 54 55 59 63 69 76 73 65 46
92 95 97 94 93 93 96 98 98 94 84 72 79 80 72 73 73 79 74 63 67 70 63 65 63 62 57 54 46 46 47 45 50 44 47 48 46 34 38 43 47 47 50 54 58 59 61 62 65 69 72 70 52 42
97 94 93 96 94 94 96 97 97 94 82 80 84 82 79 73 81 79 73 65 68 64 60 65 69 61 56 55 49 49 51 51 46 49 48 43 38 40 45 48 51 55 62 62 63 64 67 71 72 72 71 68 49 39
95 97 96 95 94 92 92 93 95 96 97 92 89 88 87 82 76 70 66 67 65 59 60 70 69 66 58 55 53 53 52 50 52 54 43 46 47 48 54 56 58 66 70 70 66 67 68 72 77 76 73 66 51 38
96 97 96 96 93 89 85 92 96 93 94 90 88 88 86 78 75 71 71 69 66 66 69 71 65 62 58 56 51 50 54 52 47 48 51 52 47 50 55 57 60 64 71 73 68 65 66 66 68 77 77 67 53 44
92 95 96 95 93 87 91 93 93 88 84 84 84 82 77 78 75 72 70 68 67 74 73 67 62 63 56 52 51 51 46 43 49 49 49 47 43 44 47 53 62 62 64 76 72 65 63 62 63 74 77 68 55 45
85 86 94 94 89 90 94 91 87 83 83 86 86 82 82 83 83 78 68 70 77 78 77 64 63 61 52 49 48 43 49 49 45 47 46 41 40 41 42 52 65 62 60 72 81 77 72 66 65 67 68 63 50 39
74 82 87 87 90 96 90 87 87 89 90 90 90 89 87 83 78 80 80 79 80 78 69 64 55 55 56 51 47 45 47 44 44 44 44 41 44 45 47 52 63 69 68 63 74 77 78 76 73 72 70 54 36 30
70 70 74 79 85 92 92 87 89 92 94 94 94 94 88 85 83 86 84 82 85 74 69 66 63 57 54 56 54 52 49 47 45 44 42 41 43 45 47 50 56 64 70 72 67 60 63 63 61 57 49 37 33 32
69 66 66 69 75 83 84 85 88 91 94 94 93 93 91 90 87 85 86 84 80 76 73 69 70 68 64 58 58 55 54 51 50 50 50 49 48 49 50 52 55 57 65 74 77 79 76 63 59 55 48 40 39 39
69 67 64 67 70 77 81 84 85 90 90 91 92 89 89 89 89 87 89 86 85 82 82 84 78 71 65 62 58 59 57 56 55 54 54 55 51 56 56 58 59 61 64 67 76 82 84 85 85 83 78 71 69 69
62 59 58 59 70 76 83 85 90 88 87 86 84 87 84 86 87 86 88 85 86 83 82 83 77 73 68 58 54 54 54 54 54 54 55 55 56 57 58 58 58 62 64 67 73 78 84 85 84 82 82 82 81 79
56 51 47 51 56 65 75 82 85 85 84 84 80 78 83 81 78 74 82 77 80 81 83 78 74 71 68 61 55 53 53 55 60 61 60 61 60 58 60 58 58 60 62 64 67 71 79 83 84 85 84 83 81 79
56 51 47 49 55 62 66 71 73 75 80 80 82 81 78 79 77 78 75 73 74 75 75 70 65 60 56 55 56 52 50 52 54 56 60 67 69 69 65 63 63 65 65 63 64 67 73 78 82 84 84 82 78 77
53 52 52 52 57 62 66 67 70 69 72 71 71 78 83 81 81 78 75 76 74 69 64 59 56 52 52 51 48 47 50 53 55 56 57 59 65 72 73 71 70 71 70 69 68 68 72 76 80 82 81 81 82 85
54 53 54 55 57 62 66 74 74 74 70 65 64 64 66 70 70 69 67 61 61 62 59 57 56 57 56 56 54 54 55 58 63 65 66 66 66 70 75 78 76 73 73 71 69 69 71 76 81 82 85 86 91 96
54 54 55 56 59 57 68 71 71 72 70 69 67 66 63 60 59 59 58 57 58 59 58 57 56 56 57 58 58 59 63 72 77 77 78 78 75 74 75 76 76 74 73 71 72 74 78 82 84 88 92 94 92 90
61 63 61 56 59 58 61 65 66 67 70 67 69 68 68 65 67 66 70 69 68 66 64 63 60 57 58 63 66 73 83 88 90 89 88 86 85 83 82 80 78 76 75 77 80 83 87 89 89 90 90 87 80 72
56 55 57 60 64 67 67 70 73 74 74 74 74 76 73 72 72 73 74 73 73 72 73 72 72 74 78 82 84 86 87 87 88 88 87 87 84 83 82 80 80 80 80 80 81 80 79 81 84 80 74 68 62 56
50 53 59 64 68 73 78 77 78 75 76 75 74 74 75 77 78 79 80 80 81 81 82 83 85 85 85 85 85 86 87 88 87 88 87 86 83 79 78 80 81 81 80 78 79 79 78 72 67 64 60 53 49 45
80 80 80 78 80 79 79 80 81 80 80 80 78 79 77 78 79 80 80 81 83 85 86 86 85 85 87 90 92 94 95 96 96 93 92 91 87 84 86 92 91 84 80 78 75 71 67 63 57 51 47 45 46 43
98 97 96 93 91 90 90 89 87 85 84 79 76 74 73 74 73 73 76 79 81 82 83 85 89 93 95 97 98 98 97 96 98 98 98 98 98 98 95 85 80 79 76 70 65 60 53 50 46 46 46 43 38 33
98 98 98 97 97 97 97 98 97 96 93 89 86 86 85 86 86 89 92 94 96 96 97 97 98 98 98 98 98 98 98 98 98 98 98 97 92 85 82 79 72 66 62 55 51 48 46 47 45 42 38 32 29 29

GFSWCAN_prec_cthk_132.txt.gz
RH
87 85 95 93 87 73 67 65 68 76 88 98 98 98 98 98 97 97 97 97 95 92 90 85 85 84 81 77 77 72 71 63 61 56 40 35 53 56 58 58 66 51 61 61 53 56 82 79 83 84 84 82 79 82
84 87 95 94 83 77 72 70 72 86 96 97 98 98 97 94 93 93 98 97 96 89 92 88 86 84 83 78 76 67 55 49 43 34 30 36 46 58 46 58 46 50 50 64 73 76 71 72 76 78 81 81 83 86
81 93 97 98 93 78 76 73 77 91 97 97 98 96 97 89 88 85 86 85 85 81 86 86 81 69 66 65 64 58 57 47 32 33 41 54 51 43 49 55 56 50 42 52 54 55 59 65 69 76 83 88 87 85
87 97 98 98 87 80 78 80 84 90 98 97 93 96 91 84 87 86 83 77 68 70 76 81 71 60 60 57 54 48 39 30 29 36 39 43 47 38 55 52 57 57 47 46 51 53 58 63 71 82 91 91 89 87
89 97 98 89 84 81 82 82 83 93 97 92 93 94 85 82 87 73 70 73 71 69 66 68 64 58 50 38 28 31 26 23 27 28 31 36 44 40 44 47 46 50 50 47 46 47 50 58 70 81 94 94 91 88
96 98 94 88 84 83 87 87 90 91 87 86 91 86 79 84 85 81 76 76 69 56 59 69 70 61 53 49 39 39 35 33 31 32 37 43 40 41 46 43 48 47 43 40 43 42 51 58 68 78 85 90 92 90
97 98 94 90 88 86 90 88 84 79 77 90 89 80 78 84 87 84 71 69 63 60 59 66 66 64 60 49 37 33 32 32 34 35 35 37 33 35 44 47 53 46 36 36 39 43 50 56 63 68 73 79 77 79
99 96 90 91 88 89 94 91 86 87 80 78 78 77 78 84 80 63 61 61 60 64 63 64 67 61 57 52 45 40 33 31 35 36 29 38 38 31 38 47 44 41 35 37 40 46 50 54 58 64 72 74 78 73
98 93 89 90 91 98 96 96 92 89 79 72 75 73 77 80 77 61 60 56 58 73 70 63 62 66 67 57 40 44 46 45 33 40 39 33 42 38 36 43 39 35 37 39 43 45 50 53 58 63 72 78 79 74
95 90 93 91 91 94 96 98 96 91 82 74 73 70 78 69 66 66 66 62 56 60 66 63 61 56 59 52 51 43 44 39 41 44 38 35 46 42 33 37 40 38 40 40 44 47 51 55 58 62 69 74 74 73
93 91 92 92 91 94 97 98 97 93 84 73 67 79 79 76 76 68 61 63 60 62 63 67 60 56 60 59 53 51 49 43 45 42 42 47 50 45 33 38 39 40 42 43 45 47 51 54 57 63 65 67 74 72
96 90 89 91 93 96 99 99 98 95 83 73 76 78 75 79 72 74 72 68 72 75 67 71 64 62 62 58 51 51 47 49 54 44 44 47 52 41 33 38 42 43 43 44 48 52 54 56 58 62 67 72 71 65
95 91 89 89 94 97 98 98 94 88 77 77 81 78 77 70 76 73 77 68 76 78 74 68 66 60 59 59 55 49 54 52 44 44 47 54 45 33 40 45 48 45 48 54 58 59 60 62 65 68 69 72 72 56
96 93 91 91 92 96 98 96 95 86 84 84 85 76 81 74 73 79 73 70 69 67 69 70 63 65 62 61 61 58 55 46 48 50 45 46 39 42 47 50 48 52 57 61 65 62 61 64 69 75 77 76 73 60
93 92 91 91 91 94 97 96 92 89 88 89 91 88 84 81 81 77 80 77 66 67 70 68 67 66 65 63 62 54 51 51 46 50 61 54 43 44 49 50 53 56 58 62 67 65 61 64 66 70 77 79 76 67
90 91 93 89 86 87 94 98 96 92 91 89 86 84 80 77 76 72 72 71 75 73 71 68 71 72 67 61 58 57 47 45 48 59 54 45 42 43 42 43 53 60 58 57 65 75 68 64 64 65 67 73 79 72
91 91 89 85 85 87 91 96 91 88 89 90 87 85 86 81 78 76 74 75 78 80 85 72 73 70 63 59 56 54 57 58 50 45 44 40 40 38 39 42 50 60 65 62 65 75 79 77 69 69 67 69 72 70
85 87 85 85 88 88 93 92 89 90 91 91 91 87 86 85 82 78 71 73 77 83 77 72 65 64 66 60 63 55 52 46 46 44 41 38 38 40 42 46 51 56 63 69 71 68 74 79 82 81 74 71 68 66
75 76 78 83 92 92 88 87 90 91 93 94 92 89 87 84 83 82 74 77 88 89 79 74 70 67 68 70 66 57 54 51 46 45 39 39 39 40 43 45 48 52 57 62 68 75 76 71 67 68 70 71 67 57
67 71 78 85 89 86 86 89 90 92 96 96 97 94 90 84 82 84 86 86 88 87 81 80 86 84 77 67 69 63 55 53 53 52 50 46 45 46 48 49 51 53 56 58 62 66 72 77 82 83 76 67 58 53
58 59 70 84 82 82 88 90 94 95 95 96 94 90 91 90 88 91 93 88 87 90 91 88 81 79 71 64 61 63 59 57 54 55 54 53 50 52 50 53 55 57 58 60 62 64 67 71 76 83 86 86 86 87
55 54 58 65 74 78 83 87 87 88 89 93 91 89 91 95 91 89 92 94 97 96 95 93 85 77 71 65 62 58 56 54 53 53 53 54 55 55 55 56 56 58 58 59 60 63 65 65 70 74 78 83 84 85
49 47 45 55 63 70 82 86 84 83 85 84 88 90 90 90 87 84 89 91 92 94 93 89 85 79 74 69 68 66 62 59 55 57 58 58 59 62 62 62 61 60 60 60 61 62 64 64 66 68 72 76 81 84
42 39 39 45 52 63 71 81 81 81 82 81 79 79 80 80 78 83 85 87 87 82 80 78 74 72 71 71 70 65 64 62 59 54 53 54 56 59 62 65 67 67 66 66 68 70 72 72 72 71 72 73 78 83
45 45 47 45 51 59 64 68 73 76 80 79 78 79 78 74 72 72 76 81 78 78 77 77 79 77 74 70 64 58 54 51 49 49 53 54 55 56 58 60 63 70 74 76 78 77 77 76 75 74 75 76 78 82
52 48 48 48 52 60 67 68 69 69 68 72 72 74 75 80 78 80 84 84 82 78 73 71 70 68 63 58 55 53 55 56 56 56 58 61 68 71 70 70 69 70 72 76 80 81 80 77 77 77 79 82 84 88
53 51 46 44 53 56 69 75 72 70 67 70 67 68 66 67 73 76 72 69 69 69 67 65 63 60 58 57 58 58 59 61 61 63 71 77 78 79 80 80 81 81 80 80 80 81 81 80 80 81 84 86 89 91
52 51 54 51 57 55 60 66 65 66 75 83 76 70 72 72 78 73 72 72 69 66 65 64 64 63 61 58 56 55 61 66 69 75 80 82 84 86 88 88 87 87 87 86 85 83 83 83 84 84 86 90 97 94
51 52 57 60 59 61 61 67 80 76 74 73 75 80 72 67 67 69 71 69 69 70 70 70 71 70 69 67 68 70 74 79 83 84 83 83 83 84 84 85 84 83 83 82 82 82 82 82 83 88 90 82 73 64
56 55 57 59 58 62 70 71 74 72 72 72 71 70 70 71 73 73 73 74 75 76 76 77 78 79 80 82 84 84 83 83 83 83 85 86 88 90 89 90 90 86 83 81 80 83 89 89 82 73 67 60 53 48
67 67 67 68 71 73 71 72 73 75 76 76 76 75 72 73 71 72 74 76 78 78 79 79 80 81 81 82 82 83 84 86 89 92 95 95 94 93 94 97 93 88 87 88 85 80 74 69 63 55 50 46 46 43
98 99 97 93 91 86 84 83 84 83 82 79 77 76 75 74 72 71 71 72 73 74 74 75 75 77 80 83 86 90 93 96 97 97 96 96 98 98 98 93 89 87 83 75 71 65 58 52 48 47 44 41 37 32
98 98 98 98 98 97 98 98 95 94 90 87 84 80 77 77 73 73 74 76 77 79 84 90 94 97 98 98 98 98 98 98 98 98 98 98 97 93 90 87 79 73 67 61 54 50 48 46 42 39 35 31 28 27

GFSWCAN_prec_cthk_135.txt.gz
RH
59 81 87 86 87 98 94 79 69 65 64 66 71 73 88 98 98 96 91 92 97 96 95 97 94 95 94 93 95 89 88 82 81 81 78 71 60 70 70 67 67 63 58 57 57 63 75 61 66 76 75 72 75 78
64 90 91 89 92 98 91 76 69 69 76 78 80 86 97 98 98 98 98 98 98 94 95 95 94 93 93 89 86 87 79 73 72 72 67 64 58 73 66 80 70 77 59 66 67 70 72 72 66 60 60 65 71 80
75 95 89 95 94 96 84 75 73 75 83 89 95 98 98 98 98 99 99 98 96 96 96 95 95 90 89 83 80 74 74 68 65 65 65 51 57 47 71 67 61 57 54 57 53 59 61 59 53 53 56 65 74 82
88 94 90 94 98 94 82 79 76 79 88 96 98 95 94 95 95 97 97 93 92 89 96 97 86 86 85 78 76 70 68 62 58 57 49 52 49 47 55 55 57 57 56 56 54 47 46 50 52 54 59 68 82 87
98 91 96 97 98 96 86 81 79 85 96 98 96 92 96 98 97 94 95 90 84 80 94 92 84 81 73 68 67 64 63 55 52 44 40 40 45 47 48 52 57 53 55 56 49 39 38 42 49 55 62 68 84 88
95 91 96 98 99 95 85 84 81 93 97 97 94 89 95 96 98 92 86 84 77 70 78 88 83 69 64 58 51 42 38 38 35 33 35 39 37 40 44 53 53 49 43 42 35 34 38 42 50 57 65 72 80 90
89 91 98 98 93 89 86 83 87 96 96 96 92 91 93 94 85 81 78 76 66 61 67 75 73 63 52 43 41 43 39 34 36 35 37 36 35 37 44 55 52 48 48 38 30 33 41 42 48 56 65 69 75 81
92 98 99 96 92 89 86 81 79 90 95 97 90 90 91 86 80 79 82 75 69 63 58 70 76 66 62 54 45 45 43 38 37 36 37 38 31 34 39 40 39 39 38 32 35 36 39 44 49 53 56 60 68 73
97 96 93 92 91 90 84 80 80 91 96 94 87 86 87 87 84 85 78 77 72 67 67 66 64 67 66 63 50 45 42 40 37 42 40 38 37 33 35 41 38 33 30 34 36 37 41 43 47 52 57 61 67 76
99 96 97 94 92 94 84 88 89 88 93 89 84 80 86 84 70 71 67 56 53 69 64 62 56 64 67 55 53 45 44 40 45 48 37 44 51 42 33 35 32 33 31 35 37 39 42 46 50 54 59 63 71 73
95 95 94 91 95 97 97 95 91 84 86 82 77 82 85 73 63 62 57 55 56 67 75 72 57 58 62 57 55 50 49 53 56 45 43 43 48 43 30 31 33 34 35 36 37 39 41 46 51 55 61 63 66 68
96 92 93 94 97 98 98 95 94 83 81 75 78 82 79 75 67 67 69 66 66 69 70 66 61 62 59 55 49 48 49 56 63 43 46 51 51 46 36 33 35 37 38 39 41 43 47 53 58 59 63 65 71 74
94 93 93 93 93 96 97 96 91 83 77 76 77 82 80 72 77 73 71 72 77 69 66 65 65 59 58 55 57 52 53 57 51 49 50 52 47 35 34 36 39 41 42 45 49 52 56 55 58 61 67 70 75 76
89 90 92 93 97 98 97 95 88 83 78 77 78 77 82 73 78 78 76 76 74 72 76 73 70 66 60 56 60 58 58 56 58 55 49 50 41 36 38 39 42 44 46 50 54 58 60 57 59 61 67 72 76 75
87 89 92 96 97 97 97 93 88 80 79 83 80 83 81 82 80 81 82 77 71 71 78 74 69 61 60 61 61 58 61 59 60 56 55 48 40 41 41 40 42 45 49 52 53 59 65 62 58 61 66 73 78 78
84 84 90 93 96 95 94 90 84 80 83 86 84 85 79 76 80 77 79 75 73 77 80 72 72 65 64 63 65 64 59 62 63 63 58 48 45 40 37 37 38 45 50 54 52 55 62 72 67 64 66 68 71 76
80 79 83 86 90 94 93 89 83 86 88 90 90 85 83 79 77 74 73 77 82 79 81 71 67 72 69 69 67 67 70 68 63 58 50 44 40 37 36 37 39 43 50 56 58 60 63 70 76 78 73 70 70 70
82 83 80 81 87 89 90 90 90 91 93 91 89 85 82 80 77 74 75 79 83 84 79 73 65 70 76 74 73 72 70 66 57 49 44 40 39 39 40 41 43 45 50 53 57 60 64 69 69 70 75 79 82 78
78 79 80 80 81 82 83 88 90 93 94 91 86 84 83 80 77 75 74 80 83 83 78 76 76 82 83 79 74 68 61 55 51 43 41 41 40 40 40 41 43 45 49 50 54 57 59 64 69 74 77 77 73 68
69 76 82 84 83 79 81 88 88 93 96 96 92 87 84 82 81 81 81 81 82 90 95 91 88 86 85 79 73 70 64 61 57 54 50 46 45 45 46 46 48 50 52 53 54 56 57 60 63 68 70 71 77 82
64 72 79 80 78 81 86 88 88 93 93 95 93 90 91 87 87 89 85 85 86 97 97 94 91 92 89 81 73 71 72 69 61 60 57 54 52 50 48 49 50 52 54 55 56 57 58 59 60 63 67 67 68 74
55 63 69 68 73 78 86 89 91 92 94 95 93 92 94 90 91 94 94 92 94 97 97 95 90 88 82 78 72 66 60 60 62 61 60 56 55 55 55 55 55 56 56 58 59 61 61 61 63 64 66 67 68 71
41 41 51 58 62 70 85 84 84 85 92 93 91 91 95 92 91 93 97 97 98 98 98 94 88 83 79 78 75 72 70 68 65 64 64 62 59 57 57 59 60 61 64 65 65 66 66 66 68 72 74 75 76 77
33 32 32 42 52 65 73 79 81 82 84 86 89 92 92 92 89 92 96 95 94 96 95 93 91 88 85 80 76 72 71 69 69 68 65 60 56 54 53 52 54 56 58 60 65 70 75 77 78 81 84 83 83 83
33 39 40 41 51 60 67 74 82 80 83 83 82 85 85 82 85 88 92 92 91 91 88 87 82 77 76 76 79 77 75 71 64 59 56 54 53 53 55 60 64 67 68 69 69 70 73 76 79 84 85 86 85 84
44 41 44 41 48 60 67 70 70 73 75 78 81 80 75 76 76 81 81 80 81 79 76 75 76 78 77 75 71 67 64 59 55 55 57 58 58 58 65 70 71 72 76 79 81 84 85 85 86 86 87 87 87 87
49 46 40 40 44 53 67 71 70 69 66 73 70 67 72 76 82 84 81 80 76 76 78 78 78 77 72 66 63 61 59 58 58 59 60 61 63 68 73 75 79 81 82 84 87 90 91 93 92 90 88 87 88 88
48 48 48 43 45 53 59 62 64 70 81 87 77 73 76 77 85 85 80 79 79 77 74 71 69 66 65 64 62 59 57 56 56 59 63 66 72 78 82 81 80 80 81 83 85 86 87 88 87 87 87 89 94 98
45 44 44 50 53 58 56 67 75 75 78 75 76 79 75 72 72 73 74 72 72 71 71 70 70 70 70 70 70 69 69 70 70 73 78 78 80 80 81 82 84 88 92 92 91 92 91 91 93 96 98 97 91 79
52 50 52 56 56 62 65 66 71 71 70 70 70 70 70 72 72 71 71 71 71 71 71 72 73 73 73 74 74 76 78 79 81 81 81 80 81 84 89 94 95 94 94 95 95 93 93 95 94 86 74 65 59 53
61 59 59 60 62 64 64 66 68 69 72 72 71 71 71 72 70 69 69 70 71 71 72 75 76 76 76 79 79 79 80 81 81 81 84 89 93 96 98 97 94 91 90 92 92 87 79 73 65 60 53 50 46 42
97 98 96 94 89 84 82 77 77 76 75 73 73 72 72 71 70 69 69 70 71 71 72 74 74 74 75 76 80 84 89 93 97 98 99 98 98 98 98 97 93 91 87 80 74 67 61 55 50 47 43 40 36 31
96 97 97 97 98 98 96 93 92 92 91 90 88 86 82 78 75 75 74 74 74 74 75 78 82 87 93 97 98 98 98 98 98 98 98 98 99 97 95 90 83 77 71 63 57 51 49 45 42 39 35 31 28 26

GFSWCAN_prec_cthk_138.txt.gz
RH
69 78 77 85 92 87 83 92 91 76 68 63 61 60 58 60 65 72 88 93 96 98 94 94 95 89 87 86 86 85 91 94 92 90 87 83 76 67 72 67 70 69 63 67 63 67 67 44 53 63 61 57 55 61
69 75 71 84 88 86 91 94 89 75 70 66 66 64 66 65 71 82 96 90 94 97 95 95 93 93 89 89 88 90 87 88 85 86 82 77 83 81 80 88 72 76 62 63 56 52 58 63 63 59 48 47 51 57
69 67 72 83 86 92 95 94 88 78 76 74 71 70 71 76 85 98 98 97 93 90 92 93 94 96 96 94 94 94 92 87 83 78 81 76 78 79 90 84 84 78 73 68 65 59 59 57 56 48 44 48 52 60
58 61 69 88 86 93 98 94 87 81 75 77 77 77 86 95 98 98 99 99 97 93 96 97 92 93 95 90 91 88 87 82 75 75 77 79 77 64 71 68 72 64 61 65 67 56 51 48 43 40 43 49 55 63
52 57 84 90 89 96 98 92 81 74 76 86 92 97 98 98 99 99 99 98 92 89 94 94 92 92 90 88 90 83 79 74 74 71 77 72 59 55 48 53 57 54 56 58 56 39 35 34 36 36 41 50 56 62
59 73 94 90 95 98 96 84 76 76 88 99 97 97 99 98 99 98 98 96 93 85 86 94 90 90 81 82 80 78 76 73 69 68 69 61 60 46 53 60 48 45 47 44 38 31 30 30 34 39 46 53 60 63
72 95 93 95 97 98 93 81 75 88 98 98 98 98 98 98 96 90 85 85 86 79 88 89 86 84 80 73 68 65 61 64 57 57 55 45 41 39 45 47 39 42 42 42 34 28 32 33 36 41 47 53 59 65
98 94 92 98 98 96 92 76 79 98 97 96 97 98 97 93 91 89 81 76 76 74 79 87 88 76 68 65 55 56 48 46 45 46 42 39 35 35 42 39 42 41 36 32 27 27 29 34 39 44 50 54 59 65
92 95 96 98 97 94 78 75 92 99 96 98 98 95 92 92 89 83 77 73 70 68 77 76 72 72 54 48 48 54 52 50 45 47 41 40 38 38 34 35 36 33 24 26 29 29 32 35 40 45 50 55 60 65
95 99 99 99 93 78 70 79 97 98 98 97 93 93 86 90 85 83 78 67 65 66 63 69 64 67 58 54 54 56 52 50 49 47 39 46 44 34 31 34 33 30 25 27 29 32 33 37 41 45 49 55 61 66
99 98 96 94 84 73 78 92 98 97 97 88 85 89 84 86 80 72 65 60 66 73 69 65 59 57 63 59 53 50 52 52 51 49 43 50 54 43 31 32 32 32 30 28 29 30 32 35 41 46 52 58 64 67
99 98 94 91 81 83 88 94 98 97 89 83 83 84 73 71 67 63 68 63 65 72 70 63 63 62 60 54 55 54 49 55 60 47 52 57 49 40 36 33 33 33 33 32 32 35 37 41 47 51 53 57 63 66
97 94 93 94 91 95 90 90 94 89 89 84 84 74 67 65 71 63 64 70 72 72 73 69 66 61 59 55 56 50 55 59 57 54 56 52 48 41 34 36 36 35 34 36 39 42 43 46 48 49 51 56 63 69
93 93 94 94 97 98 91 90 89 87 83 79 82 80 79 76 78 77 74 76 73 68 67 65 63 63 59 58 59 55 56 55 55 58 56 54 47 36 38 39 38 37 38 38 40 44 47 49 52 51 51 55 60 68
92 92 93 97 99 97 92 86 86 82 80 80 77 85 83 78 80 77 76 76 76 76 72 73 68 61 58 60 59 59 64 60 58 57 55 55 45 40 41 41 40 39 40 41 42 41 44 50 56 57 57 57 61 68
90 93 98 98 98 96 93 88 83 78 80 83 83 83 80 79 82 82 81 78 76 79 77 74 73 69 66 60 61 60 59 60 61 66 63 54 47 45 44 40 38 40 42 43 44 45 47 51 55 62 67 66 65 67
86 89 95 97 96 93 88 83 80 81 85 87 89 85 82 77 75 76 80 80 78 80 83 77 72 71 65 66 66 69 68 69 69 69 66 59 53 46 40 38 39 42 45 46 47 47 50 54 59 63 68 72 76 74
80 86 90 94 94 92 88 86 86 87 92 92 89 88 83 79 77 77 80 84 81 79 76 70 66 70 74 72 74 74 74 73 69 63 57 55 49 42 42 42 44 45 47 47 48 49 52 54 60 64 66 71 74 74
74 77 81 82 85 86 87 90 89 92 92 89 88 85 82 79 75 77 80 84 86 86 81 79 77 78 77 79 78 78 73 61 58 59 56 50 45 43 42 42 44 46 47 49 50 52 54 57 60 63 65 69 71 74
73 74 73 73 74 77 83 90 89 92 93 91 88 85 83 79 79 79 80 86 87 86 86 88 87 85 83 80 74 70 64 61 57 54 53 51 48 47 47 48 50 50 51 52 55 56 57 58 61 64 63 64 67 70
71 72 73 71 71 74 81 85 89 92 93 92 91 87 86 84 85 83 87 89 85 90 95 94 94 91 88 82 78 74 72 67 64 64 59 57 55 55 53 52 52 52 53 54 56 59 60 59 62 64 64 66 66 67
63 64 63 67 71 77 83 85 87 90 94 93 91 90 91 91 92 94 94 87 92 95 97 96 94 91 88 84 80 74 68 67 65 63 61 60 60 60 60 58 56 57 58 60 61 63 64 64 66 68 68 69 71 75
42 48 54 58 62 76 88 84 85 86 91 91 91 94 94 90 95 94 94 95 96 95 96 95 93 88 84 82 80 77 72 69 69 67 66 64 64 64 63 62 60 57 56 55 56 57 59 63 66 71 75 79 81 83
26 27 32 47 55 70 76 80 81 84 89 90 90 92 94 90 93 97 97 98 98 98 97 96 92 90 87 83 81 80 79 77 73 70 70 70 67 64 62 58 53 51 54 61 65 67 68 70 73 75 77 78 81 85
28 35 33 40 53 62 75 79 81 80 83 84 88 91 91 91 92 96 96 97 96 96 95 96 96 94 91 88 86 83 79 76 76 74 73 67 61 56 54 53 54 60 66 67 69 72 76 79 83 86 89 92 94 94
37 37 38 37 44 59 68 71 75 78 81 83 84 82 83 85 87 91 91 92 92 90 88 88 89 89 87 84 82 79 79 78 75 71 64 58 55 57 60 60 60 64 69 73 77 79 79 81 82 85 88 91 92 93
44 40 37 39 41 51 65 68 69 68 71 77 76 76 78 81 84 83 82 82 80 79 78 78 79 79 78 78 78 77 74 69 65 62 59 58 59 62 63 63 65 70 76 79 80 81 83 87 89 90 91 92 92 92
46 46 43 39 40 44 58 63 66 74 85 87 77 74 76 79 84 84 84 84 84 82 81 81 81 81 82 82 78 70 69 67 64 60 58 59 60 63 67 74 79 80 80 82 84 90 94 93 94 95 96 98 99 99
44 43 41 43 43 46 55 65 69 72 79 80 83 81 77 76 77 77 80 79 79 79 77 75 74 72 72 70 69 68 68 68 69 69 68 68 72 76 79 80 80 83 89 93 96 97 99 99 99 99 99 99 99 95
50 49 49 50 54 61 64 66 71 74 75 74 72 73 75 76 76 75 74 73 72 71 70 70 70 72 72 72 71 71 71 73 75 77 79 78 77 78 81 85 91 96 98 98 98 98 99 98 98 97 88 74 63 54
69 64 64 65 66 64 64 64 67 68 70 73 74 74 75 74 71 70 69 69 70 70 70 70 70 71 74 76 75 76 78 77 78 79 82 87 92 96 97 98 98 96 94 94 95 95 91 80 69 61 53 48 45 43
94 93 91 89 86 84 81 78 75 72 71 69 70 69 69 70 69 68 68 66 65 66 68 70 71 71 73 75 76 78 81 85 91 97 98 98 98 98 98 97 96 95 92 84 78 70 62 54 49 47 44 41 37 33
96 97 96 97 98 98 97 94 92 90 89 89 88 87 84 81 79 76 73 72 71 72 73 75 78 80 83 87 93 97 98 99 99 98 98 98 98 98 97 95 88 81 75 66 57 51 50 47 43 40 37 34 31 28

GFSWCAN_prec_cthk_141.txt.gz
RH
86 84 83 84 83 91 93 93 96 96 96 89 79 70 66 64 62 59 57 68 76 77 90 90 90 83 76 68 71 75 83 83 90 91 96 95 90 86 85 80 85 86 94 97 98 95 78 59 53 51 48 53 51 50
76 75 76 80 80 85 90 91 91 93 94 83 74 70 65 62 62 60 62 71 80 85 92 92 94 94 85 88 86 84 84 90 88 88 85 86 85 83 82 88 80 83 74 75 72 61 48 45 47 56 56 49 42 43
69 66 67 71 74 82 88 88 89 98 92 81 74 69 66 64 63 63 65 77 81 89 92 93 93 96 96 93 91 90 90 88 83 81 83 84 83 81 84 82 85 79 78 77 64 58 57 57 53 48 44 41 40 44
65 60 58 61 72 82 87 89 95 94 84 74 70 67 69 68 68 67 71 79 90 97 94 89 88 91 93 95 94 94 93 89 90 89 87 88 81 84 87 81 85 83 78 77 71 62 59 48 43 42 42 40 40 46
55 54 55 65 79 85 86 90 93 85 78 74 74 72 72 73 77 80 84 92 99 99 96 94 95 91 93 96 97 96 98 94 94 90 88 83 79 83 80 78 67 63 67 63 58 47 42 30 31 35 37 38 43 50
50 53 59 75 81 85 86 92 90 85 77 75 80 81 83 83 88 98 98 98 98 99 96 98 96 91 90 93 94 92 92 89 85 83 85 83 82 80 77 69 53 53 49 48 46 38 32 28 28 32 36 41 46 52
45 55 64 79 82 88 92 95 91 84 80 78 88 95 98 99 99 98 98 97 97 95 91 94 96 88 89 90 90 89 89 84 80 82 81 78 77 69 63 57 44 45 43 43 39 33 30 28 29 33 37 43 46 51
48 57 73 81 88 92 95 93 86 79 84 96 98 98 99 99 99 99 96 92 91 93 90 91 93 85 82 82 81 79 77 79 78 76 76 74 61 58 54 40 39 39 39 38 32 27 25 28 32 34 38 43 46 52
63 72 89 90 92 98 97 86 81 90 98 98 99 98 99 99 98 96 94 92 89 85 89 86 86 88 81 78 75 74 68 70 64 65 58 53 47 44 34 33 38 41 30 24 27 27 29 31 34 35 38 43 49 55
81 95 94 95 98 98 96 84 92 99 99 99 98 98 98 93 89 90 88 82 83 81 80 84 80 80 72 69 68 67 57 56 53 53 47 49 41 34 29 33 32 28 22 25 28 31 32 34 36 38 42 46 52 55
95 94 96 98 97 93 84 88 97 98 98 98 94 93 90 86 86 81 74 72 77 79 76 80 71 67 60 53 54 54 54 52 50 48 46 48 44 35 30 32 33 30 28 26 28 26 27 29 34 39 43 47 51 55
98 98 98 97 88 81 83 98 98 97 92 91 90 93 88 82 76 72 73 72 72 75 70 70 69 65 62 57 52 52 54 57 59 50 47 48 39 37 31 31 33 33 32 31 30 31 31 34 38 41 43 45 49 53
99 98 91 81 77 91 97 99 97 97 95 91 87 82 76 72 72 65 67 71 75 75 69 68 69 62 59 56 59 52 56 60 58 56 47 43 37 37 36 33 35 36 35 35 37 39 39 38 39 43 45 45 48 52
94 90 84 89 93 97 98 98 98 93 89 83 75 74 74 75 72 73 72 72 74 76 69 63 64 63 59 59 57 56 59 59 57 56 51 49 47 45 37 38 40 39 39 40 41 41 41 41 42 44 47 47 48 52
92 91 94 96 95 97 98 97 91 84 83 83 76 83 79 78 80 77 76 73 72 74 69 69 65 59 60 62 62 61 62 57 54 51 51 52 51 43 43 44 43 41 42 43 42 42 42 44 46 48 49 51 53 56
94 96 98 94 95 96 96 93 88 82 85 84 83 83 79 84 81 80 78 79 79 75 72 69 63 64 63 58 59 57 59 60 61 60 57 59 51 49 52 49 44 40 41 43 45 45 45 49 52 54 54 55 59 61
93 94 98 98 91 92 92 85 81 82 84 86 88 85 81 86 86 82 78 80 80 79 82 75 71 69 65 65 65 64 63 63 64 63 61 56 58 57 53 49 45 41 43 45 46 47 48 49 52 55 58 61 63 66
96 97 97 97 92 87 86 84 82 84 90 92 88 86 82 79 80 85 87 84 80 81 79 74 75 74 74 72 71 70 70 70 73 72 71 61 59 56 50 47 47 48 48 48 49 49 49 51 54 57 58 60 63 67
94 95 95 93 89 87 86 88 88 91 95 92 90 86 82 78 78 84 87 84 82 81 79 78 78 79 79 77 75 76 78 76 69 67 63 60 56 52 52 52 48 47 48 49 51 52 53 55 58 59 61 63 65 67
83 85 88 89 89 87 90 91 90 92 94 92 90 88 84 79 81 81 87 86 84 84 80 79 79 77 77 78 79 77 71 68 64 62 60 57 56 55 53 52 52 52 55 57 59 59 59 60 62 62 63 64 65 67
72 71 72 78 81 84 87 91 93 93 93 93 91 88 87 84 83 79 90 87 86 87 88 89 88 87 83 80 78 74 72 71 69 65 59 61 60 60 59 58 58 59 59 60 61 61 63 65 66 66 68 68 69 71
67 69 68 67 71 77 84 87 90 92 91 91 90 89 91 90 88 86 91 86 87 89 91 93 94 94 91 87 83 81 75 70 69 67 66 65 64 62 63 63 63 64 63 63 64 65 64 64 62 63 65 67 69 71
49 53 58 61 69 76 83 80 83 86 90 90 90 90 89 91 91 89 92 90 87 90 94 95 95 95 91 90 87 82 78 76 73 72 71 68 66 65 65 67 68 67 66 63 59 58 60 64 67 70 72 74 77 81
25 27 38 52 60 75 78 81 82 85 86 88 90 92 93 94 97 94 94 92 94 95 97 95 95 96 92 90 89 87 85 82 80 78 76 74 72 71 72 70 66 61 57 56 60 67 70 70 71 74 77 79 81 83
24 31 29 40 54 67 75 79 80 82 90 90 90 93 93 90 93 97 95 96 96 96 95 96 97 97 94 91 89 87 87 85 84 81 78 77 77 76 72 65 57 57 59 63 65 69 70 72 75 79 80 83 85 87
33 35 35 36 42 54 65 75 79 79 83 83 87 88 89 90 91 92 92 95 98 97 96 95 96 97 97 95 92 88 85 83 80 80 77 75 73 70 67 61 59 62 63 63 64 68 72 77 80 82 86 92 93 93
41 39 38 40 42 47 58 66 69 74 80 83 82 81 81 84 87 87 89 90 91 91 89 89 89 88 87 85 81 77 76 78 80 79 75 71 66 63 62 61 61 61 62 66 73 77 78 81 87 93 95 97 99 99
47 46 41 39 39 42 51 59 65 71 80 83 73 76 78 79 83 83 82 82 80 80 79 78 78 78 79 80 80 81 84 85 83 76 71 68 63 63 65 65 65 68 72 76 77 78 86 94 96 97 98 99 99 99
43 42 40 41 41 42 48 55 63 71 79 81 81 78 75 75 79 80 83 83 83 84 84 84 84 84 83 84 81 79 76 73 71 69 68 67 67 68 71 73 74 75 77 81 88 93 98 98 98 98 98 99 99 99
46 45 46 47 48 52 55 57 64 69 74 74 75 76 77 76 75 76 75 75 74 74 74 75 74 73 73 73 73 72 73 73 72 72 72 73 73 73 74 77 83 90 95 96 97 98 98 98 98 98 97 87 72 59
77 73 69 67 66 63 64 63 63 65 66 69 70 71 71 72 72 71 71 71 71 72 73 73 72 71 71 72 72 72 73 74 75 76 77 77 80 86 94 96 96 97 96 96 96 97 97 92 79 66 55 50 46 43
97 97 96 91 87 84 82 79 76 73 69 67 67 68 69 69 68 66 67 69 69 69 68 68 68 68 69 71 72 72 72 73 77 82 89 96 98 98 98 96 95 95 95 92 83 75 67 58 51 49 48 43 39 36
97 98 98 98 98 98 97 95 93 89 85 82 80 80 79 79 78 75 73 72 72 72 72 71 72 72 73 75 79 84 88 94 97 98 98 98 98 98 97 96 92 85 80 72 63 55 52 51 49 45 40 38 35 31

GFSWCAN_prec_cthk_144.txt.gz
RH
93 95 98 97 95 93 91 92 91 89 89 92 99 98 92 88 85 82 78 72 72 70 60 64 82 95 98 98 98 96 97 95 92 87 80 73 68 65 78 79 88 91 97 95 94 95 92 75 73 66 47 48 46 46
92 93 97 95 93 89 88 87 90 95 93 95 98 98 93 84 81 81 76 75 73 73 64 69 94 96 95 98 92 85 82 82 81 77 73 74 82 85 87 93 85 92 82 87 83 79 77 74 67 50 46 52 50 42
91 88 90 82 81 82 81 85 88 94 97 98 98 98 90 83 79 77 74 71 72 72 66 74 84 92 98 98 96 83 82 83 80 80 88 89 87 86 89 85 85 83 81 83 81 76 69 63 54 53 49 48 43 38
85 83 81 74 72 73 74 81 88 91 92 96 97 90 84 81 77 75 70 64 72 75 77 74 91 95 96 98 98 97 95 91 93 93 92 88 83 82 88 84 83 82 85 87 86 82 69 61 53 46 42 41 40 37
67 63 58 57 62 67 70 75 90 91 95 96 93 84 81 79 78 76 71 68 71 79 86 86 90 92 92 95 98 98 97 95 94 96 96 91 83 83 87 85 81 75 74 81 79 63 51 42 38 34 34 35 34 35
54 52 47 47 54 60 68 77 88 91 98 94 86 83 79 79 78 75 73 68 70 87 88 94 98 92 93 98 98 98 97 98 98 99 97 93 87 84 85 85 77 70 66 64 55 46 42 37 32 31 31 31 35 41
47 44 41 43 51 63 76 86 90 98 94 84 81 81 80 81 80 76 72 80 82 92 97 98 98 96 96 97 98 98 98 98 97 91 90 88 84 80 82 85 76 66 57 47 39 37 37 31 28 30 32 35 39 43
45 39 38 42 58 73 85 88 96 95 84 79 80 85 90 91 89 87 87 95 95 99 98 98 97 95 95 93 92 90 94 97 89 86 84 82 80 79 79 75 66 55 42 38 36 34 29 26 28 31 33 37 40 44
38 36 38 51 62 84 85 94 97 91 85 87 90 98 98 97 98 96 99 99 99 98 98 96 93 93 89 89 87 86 85 90 86 86 83 80 81 78 69 63 48 39 39 36 29 27 26 26 29 33 35 38 42 46
35 43 54 69 86 85 93 98 94 86 93 98 98 98 99 99 99 99 99 99 99 97 89 92 88 89 84 84 83 79 75 76 78 78 78 76 67 59 47 39 39 39 29 27 29 28 28 29 30 32 35 41 46 49
50 69 83 85 89 96 99 95 90 98 98 98 98 98 98 98 97 91 86 87 91 91 84 87 89 90 84 82 82 77 78 75 60 55 57 61 49 33 33 37 36 30 28 29 27 24 25 28 30 35 40 44 47 49
81 93 95 97 98 99 96 94 97 98 98 99 98 96 95 89 80 78 83 82 83 86 83 86 87 83 77 70 58 56 61 55 50 47 51 47 36 33 32 35 35 32 30 29 29 28 29 32 38 40 43 46 47 48
98 98 98 99 96 90 85 94 98 99 98 97 95 84 80 79 78 74 78 81 81 78 75 80 80 77 68 59 52 51 58 60 58 57 48 40 38 37 35 34 35 35 35 33 34 36 38 40 42 43 44 47 48 47
98 99 97 90 81 87 95 98 98 98 94 86 81 82 81 79 72 72 73 75 73 75 73 72 72 73 66 63 61 58 62 63 61 58 49 46 42 40 37 38 39 41 40 39 40 42 42 43 44 45 46 46 47 49
94 87 83 91 93 96 96 96 96 92 86 79 77 85 78 76 74 72 76 72 79 74 70 69 66 60 60 62 61 61 65 63 57 49 49 51 50 51 46 43 42 41 43 46 45 42 41 43 44 47 48 49 49 50
87 91 96 96 99 98 95 91 88 85 84 83 82 83 79 79 80 80 77 79 81 79 76 68 65 62 62 57 59 59 61 58 58 59 57 59 55 50 47 48 50 51 48 47 45 45 44 46 49 51 52 53 55 58
89 91 96 98 98 97 93 87 83 85 87 84 86 81 83 85 86 82 81 84 83 78 79 72 67 65 66 67 67 64 64 68 65 67 68 65 57 54 56 57 54 51 48 49 47 46 46 48 49 51 53 56 58 62
94 93 91 93 95 93 86 82 82 86 90 88 84 83 85 88 86 82 83 84 84 84 79 75 72 72 71 70 67 66 65 66 69 69 67 62 62 64 62 60 56 54 53 53 51 50 48 48 50 52 54 57 59 62
97 95 89 86 85 84 82 83 82 87 91 89 86 85 85 88 89 88 87 84 84 83 80 82 82 82 81 78 76 73 76 78 79 78 78 71 68 63 57 52 52 57 59 56 52 52 53 54 56 57 59 60 61 64
94 93 92 89 86 84 87 89 88 88 91 91 89 86 82 83 84 89 88 84 82 83 82 83 82 82 82 81 80 80 79 78 76 73 69 66 62 58 57 57 57 58 59 60 61 62 64 65 65 65 65 65 67 68
85 86 87 87 86 84 87 89 90 92 94 93 92 89 86 84 83 87 94 86 83 87 86 84 85 84 82 83 81 77 77 78 76 74 68 63 61 61 61 61 61 61 61 64 66 67 67 68 69 69 68 65 63 63
69 70 72 77 79 82 87 88 90 91 91 91 90 91 89 86 83 81 87 88 92 88 87 91 93 94 91 86 84 81 78 77 72 68 67 67 65 65 65 64 64 64 65 67 68 69 67 66 65 64 64 65 67 69
56 60 61 63 71 75 83 83 84 86 89 89 87 90 92 92 89 88 91 90 89 90 91 94 97 97 96 94 89 82 79 77 77 76 75 75 75 74 71 68 68 68 70 71 69 65 62 63 68 69 70 70 73 74
26 31 43 54 63 74 74 78 80 85 87 90 89 90 90 92 91 89 92 92 91 89 90 93 97 99 98 94 93 90 88 87 86 83 80 78 76 75 75 74 72 72 70 68 64 62 63 65 68 71 73 74 76 80
23 29 28 37 54 68 75 79 80 83 87 88 90 92 93 93 96 95 93 94 94 92 94 98 98 97 96 95 93 92 90 88 87 86 86 85 83 82 80 77 74 71 70 68 66 67 66 65 67 70 74 78 81 83
36 36 34 36 40 47 60 71 75 77 84 87 89 89 90 94 93 93 93 96 96 95 96 97 98 98 98 98 97 96 94 92 90 88 84 81 78 76 77 75 71 68 65 64 64 64 64 67 72 77 80 82 88 94
42 44 42 42 45 46 48 55 66 75 79 81 81 83 85 89 87 87 87 91 95 96 98 96 96 96 95 93 92 90 88 86 84 80 79 80 81 80 78 73 69 65 62 62 63 66 70 74 77 79 84 93 98 99
46 45 41 40 40 43 49 51 58 67 77 83 79 82 81 80 82 83 85 87 88 89 89 87 86 84 83 82 81 81 81 82 82 82 84 85 82 77 73 69 67 67 68 69 70 72 75 79 87 94 97 99 99 99
47 43 40 41 41 43 44 47 52 59 73 78 79 79 76 77 80 82 83 83 84 85 85 85 85 85 84 83 84 85 85 84 84 80 75 72 68 68 68 68 69 70 71 73 78 87 94 95 95 96 98 98 99 99
49 47 45 44 45 48 49 48 53 60 68 75 76 77 79 78 77 78 79 80 81 81 81 81 81 84 86 86 82 78 76 75 72 71 70 70 69 70 71 71 72 76 85 93 94 95 96 97 97 97 97 92 79 66
89 82 77 75 71 65 64 63 61 61 64 68 70 71 72 71 71 71 72 72 72 72 72 73 73 73 74 73 72 71 71 72 72 72 73 73 74 73 75 84 92 94 94 95 95 96 96 96 88 74 63 56 52 49
97 97 97 96 92 88 85 82 79 75 72 68 67 66 67 68 67 68 70 70 70 70 70 71 71 70 69 69 69 70 71 71 72 74 75 77 83 93 97 97 95 94 95 95 90 81 72 63 56 52 51 50 46 41
89 93 96 97 97 97 97 96 93 88 83 80 77 75 73 72 71 70 71 72 73 74 74 74 73 73 72 72 72 73 75 77 82 90 97 99 99 98 97 97 96 90 84 79 70 62 57 55 52 50 47 43 41 38

GFSWCAN_prec_cthk_147.txt.gz
RH
94 99 96 99 99 96 97 96 92 91 90 89 87 80 80 83 85 79 73 75 75 73 70 72 68 62 58 73 84 90 96 98 98 99 97 95 87 81 73 66 73 74 87 87 94 95 88 75 76 74 72 60 49 49
99 98 98 93 95 95 93 94 94 92 86 86 86 90 96 96 93 89 82 79 87 80 68 68 61 48 61 84 98 98 98 99 98 96 96 90 84 70 64 71 82 90 82 85 83 78 78 73 71 71 69 51 50 50
98 93 97 97 96 95 90 88 86 85 84 85 89 97 98 99 98 98 95 91 89 87 75 64 41 54 76 96 96 99 97 94 94 91 84 76 74 75 87 85 83 80 80 79 79 80 76 74 66 64 57 51 45 42
99 98 94 90 85 87 87 85 83 84 89 90 93 98 98 98 98 98 95 88 84 87 78 57 55 60 82 90 96 99 98 83 85 96 87 90 95 89 87 81 80 78 78 79 80 81 81 75 70 60 52 43 38 37
98 98 94 89 83 82 81 79 79 84 92 94 97 97 99 98 98 96 90 86 83 81 73 65 57 72 90 93 96 98 98 92 91 97 99 97 90 90 86 82 80 79 74 80 85 77 76 70 53 46 40 36 33 32
87 88 83 77 73 71 69 69 72 84 90 96 97 98 98 98 94 92 91 82 77 72 71 67 73 88 92 89 94 97 99 98 98 99 98 96 90 91 89 85 81 74 71 65 67 66 59 50 44 37 32 30 30 34
80 72 69 66 62 60 60 64 70 84 97 98 97 98 95 91 87 83 81 76 74 75 74 75 78 91 96 97 98 99 98 98 98 99 98 95 92 90 94 87 80 75 72 69 58 46 39 38 34 30 29 30 33 37
70 62 57 52 48 48 53 62 78 91 98 97 97 95 93 89 85 81 77 80 84 82 82 86 91 98 98 98 99 98 99 98 98 96 94 96 94 91 87 82 80 78 72 63 52 38 34 32 29 28 29 32 35 38
55 50 46 39 40 43 54 72 90 98 98 96 88 87 90 89 81 80 80 84 89 93 92 91 93 98 97 97 93 94 96 95 92 92 90 88 88 85 76 76 75 72 67 58 41 35 28 27 27 29 31 33 37 40
40 36 33 34 36 43 62 86 97 99 95 89 91 93 89 85 89 91 96 98 98 99 98 93 95 97 94 92 91 87 87 89 87 86 88 88 80 74 71 70 71 63 47 33 30 28 27 28 29 31 33 35 40 43
29 28 30 30 37 55 77 94 98 93 89 94 97 98 98 99 99 99 98 98 98 95 92 91 93 95 92 90 87 83 85 83 80 78 78 79 74 65 63 62 57 40 31 27 25 30 33 32 30 34 36 41 44 45
26 28 30 39 66 81 89 97 94 90 95 98 98 99 99 98 94 92 94 90 86 85 88 91 94 95 93 89 86 85 80 75 68 59 59 55 47 44 42 39 36 32 28 27 26 26 27 29 31 35 39 42 44 46
29 44 68 80 87 96 98 95 95 98 98 99 98 97 95 89 83 81 84 85 87 89 88 91 95 94 91 86 80 68 65 68 63 59 51 43 44 43 46 45 39 35 34 34 33 32 32 33 37 38 39 41 44 47
88 93 94 97 98 98 98 96 98 98 98 98 89 90 90 81 79 79 85 87 86 82 76 76 88 89 84 78 70 60 62 64 65 65 50 47 48 47 48 49 42 39 39 41 41 42 43 44 43 40 40 41 44 48
98 98 97 93 97 95 97 98 97 96 93 90 86 87 80 80 77 75 80 83 79 75 74 79 77 75 77 69 66 66 68 67 69 56 56 61 61 56 50 46 46 45 46 46 45 46 46 44 40 42 44 45 47 50
93 93 95 97 93 97 98 98 97 93 87 85 83 85 82 80 78 77 79 78 76 75 73 70 71 69 69 63 63 63 62 56 59 62 59 58 60 59 59 56 54 53 52 53 54 51 47 45 46 48 48 50 52 53
93 94 94 92 95 94 91 91 89 83 81 83 84 83 82 80 82 80 82 83 79 79 81 74 70 70 67 69 69 64 68 73 70 67 70 71 68 65 59 56 56 54 54 54 52 49 50 49 49 52 53 52 53 55
96 98 99 95 91 88 85 84 83 83 87 89 85 83 81 82 85 86 84 82 81 81 77 74 73 74 76 75 74 74 71 70 70 72 77 76 69 65 63 62 61 62 58 57 58 57 54 51 52 54 53 54 56 59
95 96 95 93 89 84 82 83 83 86 83 80 78 78 83 86 86 87 88 85 85 84 83 83 84 83 80 78 76 75 75 74 75 78 78 72 68 66 69 68 63 62 61 56 57 60 60 59 57 57 59 64 69 70
94 92 89 87 83 80 80 81 78 79 83 82 79 83 91 94 92 90 89 85 85 86 88 86 85 86 86 84 82 83 81 82 82 82 81 76 73 73 68 62 60 60 61 63 64 65 65 65 67 68 70 71 72 73
87 89 88 85 83 82 83 86 87 90 91 90 88 87 89 88 88 90 90 86 83 86 89 88 89 89 84 83 83 80 80 80 78 77 77 75 71 65 62 62 62 64 63 63 64 65 66 69 70 71 71 70 70 69
77 79 80 80 80 82 85 88 89 90 93 94 93 91 89 89 88 91 95 95 89 90 90 92 91 90 89 88 84 83 81 78 77 76 75 72 69 68 67 67 66 65 64 65 66 68 69 69 67 65 64 69 71 71
60 61 63 70 76 80 87 85 87 88 91 93 94 94 95 93 88 84 87 87 89 93 93 94 94 95 94 93 88 82 79 77 75 75 75 75 74 74 73 73 73 72 71 70 70 71 71 69 66 64 67 69 70 69
25 33 47 56 62 71 75 82 85 88 88 89 90 90 93 93 91 88 89 89 91 91 92 91 94 97 97 96 93 90 87 86 86 84 83 80 77 77 76 75 75 76 75 75 75 76 74 71 69 71 69 68 69 74
22 28 27 34 51 65 72 75 77 80 85 88 89 90 90 91 90 90 90 92 94 94 93 93 94 96 98 98 97 94 92 91 90 88 86 85 84 84 84 82 77 73 73 74 73 72 69 69 69 69 68 70 74 77
37 39 36 38 40 42 50 64 72 76 79 82 84 85 88 90 91 90 89 91 92 95 95 95 95 97 98 98 98 97 96 95 94 93 91 89 87 83 79 78 77 77 74 72 69 67 65 66 68 71 74 76 79 83
39 42 42 43 46 45 44 45 52 67 75 77 80 83 84 85 85 83 85 88 91 95 96 96 97 97 97 97 97 96 94 93 91 90 87 85 81 81 83 84 84 79 72 70 69 69 69 70 72 75 79 85 93 98
44 42 38 39 41 43 47 48 49 50 63 75 77 80 80 78 79 82 83 86 91 94 95 95 97 96 94 92 89 88 88 87 85 84 83 83 83 83 84 82 76 72 69 67 67 67 69 73 79 89 96 98 99 99
43 42 40 42 41 43 44 46 48 48 54 66 72 73 77 79 80 81 82 83 84 85 86 87 86 86 85 84 84 84 85 84 84 83 84 83 82 76 71 69 69 69 70 70 70 73 81 89 93 95 96 98 99 99
69 62 54 46 44 46 47 45 45 50 55 61 72 78 80 79 78 80 82 85 87 88 88 87 87 87 86 87 88 89 90 89 87 80 75 72 71 71 70 70 70 70 71 76 88 94 95 95 95 95 97 97 90 76
92 89 86 84 82 75 69 65 59 55 55 58 62 65 69 72 73 75 76 78 78 77 76 76 76 75 75 74 75 74 74 73 72 72 73 73 73 72 71 72 73 80 91 96 96 96 96 96 95 83 71 63 59 56
88 93 95 96 95 92 90 87 84 80 77 72 69 65 63 63 62 61 62 66 69 73 75 75 75 75 75 74 73 72 71 70 69 70 71 73 75 77 82 92 97 95 95 95 96 92 81 72 63 59 56 53 52 50
83 83 83 86 90 93 95 97 94 91 85 83 80 77 74 71 69 66 66 66 67 70 73 76 78 78 77 75 74 74 75 75 76 78 81 89 96 98 98 97 97 96 90 84 78 69 61 59 57 54 51 50 47 44

GFSWCAN_prec_cthk_150.txt.gz
RH
81 77 73 86 98 99 97 98 99 98 98 96 94 93 91 92 88 82 78 69 68 66 50 54 57 64 68 68 62 65 83 85 90 90 91 88 84 81 79 74 81 72 73 78 74 81 81 73 75 75 75 68 66 54
62 74 80 97 98 96 97 99 99 98 94 89 86 87 91 89 84 84 82 77 79 75 63 63 58 57 61 61 63 84 89 95 98 98 95 89 87 82 77 79 65 68 66 76 77 75 77 74 75 71 73 70 58 48
63 69 90 98 98 99 98 97 97 94 88 83 81 85 87 82 81 84 83 81 82 76 75 75 63 62 60 55 67 80 91 98 98 98 97 94 88 80 80 59 62 66 78 78 80 73 73 74 74 70 64 56 54 46
67 74 96 98 99 98 97 96 94 90 86 81 78 82 87 93 95 95 92 89 89 84 79 73 71 69 65 58 63 81 93 98 98 98 98 89 84 70 76 77 80 80 84 77 76 74 76 76 76 72 68 57 49 40
96 96 98 99 98 96 94 94 90 84 78 76 79 87 94 97 99 99 99 97 96 95 89 79 74 58 62 63 76 92 98 98 99 96 90 94 83 85 84 88 81 78 77 78 81 79 81 82 80 78 62 49 41 34
99 99 99 96 93 88 85 83 78 74 76 83 93 96 97 98 99 99 98 98 95 93 88 75 68 64 65 74 88 94 98 98 98 91 89 88 92 96 95 85 79 77 76 73 71 73 73 70 68 63 48 37 30 30
99 99 91 86 83 76 74 73 72 74 80 95 98 98 97 99 98 97 93 86 84 88 88 74 53 58 70 84 95 95 98 99 99 99 95 96 97 97 97 86 80 79 77 74 73 70 61 54 42 35 32 28 28 33
93 90 80 76 70 66 65 62 63 71 88 97 98 98 98 99 99 98 94 89 89 90 85 76 60 67 88 97 99 98 99 99 98 98 98 97 96 97 94 81 83 82 80 76 74 68 62 42 33 29 27 28 32 36
77 70 64 62 58 53 49 51 63 83 98 98 98 98 98 96 94 88 92 91 94 90 86 73 61 83 95 98 98 98 98 98 96 98 98 98 98 96 84 82 84 83 78 76 76 71 53 35 28 28 29 31 35 38
65 53 48 44 40 41 44 56 84 96 98 98 96 94 92 91 93 93 94 93 94 88 80 74 80 86 90 98 97 93 91 93 91 90 93 96 85 81 80 78 78 78 75 73 66 53 34 27 27 29 31 33 36 39
46 40 37 34 34 36 46 77 97 99 97 97 93 93 94 98 98 97 97 96 92 89 80 79 86 91 95 98 94 86 85 84 82 85 87 83 78 78 79 77 76 77 74 63 47 29 26 31 35 35 34 37 39 41
36 29 27 29 35 42 58 88 98 98 96 93 95 98 99 99 98 98 96 94 91 87 84 85 88 97 98 96 90 84 83 80 73 75 76 71 60 61 66 71 70 64 51 33 27 25 27 30 31 33 35 39 43 42
27 25 24 28 37 44 72 98 98 97 95 98 98 98 98 97 97 95 89 85 85 80 84 88 95 98 98 95 88 84 81 79 73 74 60 56 52 56 53 48 44 41 33 29 27 27 29 30 32 36 39 42 41 41
22 22 28 35 46 77 97 99 97 98 98 98 98 97 97 93 84 75 82 82 82 89 90 95 98 97 94 90 85 80 73 70 75 73 57 52 53 54 52 50 46 39 34 34 33 34 36 39 42 44 43 40 39 40
24 41 58 78 95 98 99 98 98 98 98 98 96 94 91 83 85 84 88 88 88 88 79 82 87 88 88 84 77 70 72 69 64 64 65 60 58 55 57 54 48 41 40 40 40 42 42 42 44 46 44 41 42 43
96 98 98 98 98 97 97 98 97 97 97 97 94 91 89 87 82 81 82 89 86 79 77 81 78 81 80 70 70 69 65 59 65 65 63 60 63 66 63 54 49 48 49 52 53 54 53 53 50 49 47 45 47 50
92 95 95 95 98 98 98 98 98 98 97 96 95 91 87 84 81 77 78 77 77 79 80 73 75 72 70 70 72 70 74 70 68 69 71 71 68 64 62 61 58 58 55 53 55 56 56 53 51 51 52 52 53 55
96 95 96 96 98 97 97 95 92 92 92 91 89 85 83 81 80 81 81 78 81 82 80 79 76 74 74 73 74 74 69 68 73 74 76 80 79 78 72 65 64 60 59 60 60 62 61 57 55 56 58 59 59 59
95 93 93 93 91 89 86 85 86 86 85 83 83 80 79 79 83 84 83 84 84 85 85 81 80 77 76 74 73 72 72 74 74 75 78 80 78 72 70 70 68 69 68 67 65 62 58 60 63 64 65 67 69 71
96 95 92 89 87 85 84 82 77 76 77 77 76 81 80 80 82 88 91 87 90 91 87 84 84 82 83 83 81 81 81 81 82 84 83 79 77 78 79 78 75 72 67 65 65 66 67 68 68 69 71 74 77 78
93 91 88 84 81 80 77 77 75 75 75 74 75 79 84 86 90 91 93 88 88 85 84 86 85 85 85 81 82 86 86 85 84 82 81 80 79 78 75 69 67 66 67 68 69 69 69 69 69 72 75 75 74 73
86 87 85 81 80 80 80 81 82 84 85 85 82 83 88 92 91 91 92 90 85 85 85 87 87 85 85 84 81 81 80 80 79 79 79 79 78 76 73 72 70 68 68 69 69 69 68 68 68 70 71 70 70 71
69 70 73 76 78 80 86 85 88 89 92 93 94 91 91 90 87 89 92 93 93 89 88 87 87 87 85 84 83 81 79 78 77 77 77 75 74 74 74 74 73 74 75 75 75 76 75 75 76 75 74 73 70 71
30 42 52 60 70 78 80 86 87 87 89 90 92 94 94 93 91 87 87 87 87 87 89 91 90 89 89 88 84 81 81 82 82 82 82 82 82 80 78 78 78 78 79 79 79 77 77 78 76 75 73 71 71 70
25 28 27 36 52 65 71 75 81 84 89 89 90 91 91 92 92 90 88 89 92 93 92 90 88 88 90 91 90 91 91 90 90 89 87 87 86 86 86 85 83 81 77 76 78 79 79 77 75 71 69 69 70 72
33 38 37 39 39 42 48 57 67 74 77 82 86 87 91 92 92 88 85 87 90 93 94 95 95 95 94 95 97 97 97 96 94 93 92 92 92 91 90 87 82 79 80 82 84 83 79 75 75 74 72 72 74 76
35 39 41 41 44 43 43 43 44 54 68 73 77 79 83 82 79 80 82 84 88 91 93 95 96 96 96 97 97 97 97 97 96 95 94 92 91 89 88 86 84 83 83 84 83 79 74 71 70 71 73 78 85 93
41 40 38 39 40 41 44 45 46 45 47 58 66 76 76 73 74 76 77 81 84 88 91 94 96 96 96 97 97 97 94 93 92 91 90 88 87 86 85 85 84 83 81 76 71 68 67 69 71 76 86 95 97 97
50 44 39 40 40 41 42 43 45 46 46 49 54 59 68 74 74 74 75 78 82 87 91 94 96 96 94 91 90 89 89 88 88 87 86 85 85 85 85 84 79 73 70 69 68 69 70 73 84 93 96 98 99 99
80 75 72 62 49 44 43 43 45 44 45 49 54 60 64 68 71 74 76 78 80 82 84 85 86 87 88 88 88 89 90 90 90 90 90 89 86 80 75 73 72 72 71 72 72 75 84 93 95 96 97 98 98 96
87 90 92 88 85 82 78 71 65 58 52 50 52 56 61 65 69 71 73 76 78 81 83 84 84 83 82 82 82 81 80 79 79 78 77 77 76 74 74 74 73 74 76 81 91 97 98 98 97 97 90 78 70 65
85 85 86 87 90 91 92 91 88 84 80 76 72 66 62 61 62 58 62 67 71 72 75 75 75 75 77 77 77 77 78 78 77 75 73 73 73 74 75 77 80 90 97 98 98 98 96 88 77 70 64 61 57 54
91 92 91 89 86 85 88 91 92 91 90 85 82 80 77 75 72 66 64 62 62 66 70 74 75 76 78 80 81 79 77 76 76 76 78 79 81 86 94 98 98 98 97 94 87 80 73 66 61 60 59 57 53 51